User: anonymous
Location: Veyrier
(46.1830°N, 6.2000°E)
Time: 08:25:03
(UTC+02:00)
Language:

Iridium 98 - Orbit

View from above orbital plane
View from above orbital plane
View from above satellite
View from above satellite

Ground track
Ground track

The orbit data is extracted from the following two-line orbital elements,

1 27451U 02031B   14274.47297078  .00000349  00000-0  11761-3 0  5213
2 27451 086.3926 075.9536 0002092 113.3236 298.8673 14.34216795649444
Epoch (UTC): 01 October 2014 11:21:04
Eccentricity: 0.0002092
inclination: 86.3926°
perigee height: 776 km
apogee height: 779 km
right ascension of ascending node: 75.9536°
argument of perigee: 113.3236°
revolutions per day: 14.34216795
mean anomaly at epoch: 298.8673°
orbit number at epoch: 64944

The dashed part of the orbit path shows where the satellite is in the earth's shadow,  

DLR